Time,TemperatureF,DewpointF,PressureIn,WindDirection,WindDirectionDegrees,WindSpeedMPH,WindSpeedGustMPH,Humidity,HourlyPrecipIn,Conditions,Clouds,dailyrainin,SoftwareType,DateUTC
2013-01-26 00:04:00,44.2,41.0,-100.00,NE,45,2.0,11.0,88,0.00,,,0.25,meteohub,2013-01-25 22:04:00,
2013-01-26 00:09:00,44.1,40.8,-100.00,NE,45,2.0,12.0,88,0.00,,,0.00,meteohub,2013-01-25 22:09:00,
2013-01-26 00:14:00,44.1,40.8,-100.00,NE,45,6.0,12.0,88,0.00,,,0.00,meteohub,2013-01-25 22:14:00,
2013-01-26 00:20:00,43.9,40.6,-100.00,North,0,6.0,12.0,88,0.00,,,0.00,meteohub,2013-01-25 22:20:00,
2013-01-26 00:25:00,43.9,40.6,-100.00,NE,45,3.0,11.0,88,0.00,,,0.00,meteohub,2013-01-25 22:25:00,
2013-01-26 00:30:00,43.7,40.5,-100.00,NNE,22,3.0,8.0,88,0.00,,,0.00,meteohub,2013-01-25 22:30:00,
2013-01-26 00:35:00,43.5,40.3,-100.00,NE,45,2.0,9.0,88,0.00,,,0.00,meteohub,2013-01-25 22:35:00,
2013-01-26 00:40:00,43.7,40.6,-100.00,NE,45,2.0,9.0,89,0.00,,,0.00,meteohub,2013-01-25 22:40:00,
2013-01-26 00:45:00,43.7,40.6,-100.00,NNW,338,3.0,9.0,89,0.00,,,0.00,meteohub,2013-01-25 22:45:00,
2013-01-26 00:50:00,43.5,40.5,-100.00,ENE,68,3.0,7.0,89,0.00,,,0.00,meteohub,2013-01-25 22:50:00,
2013-01-26 00:55:00,43.5,40.5,-100.00,NE,45,5.0,8.0,89,0.00,,,0.00,meteohub,2013-01-25 22:55:00,
2013-01-26 01:00:00,43.3,40.3,-100.00,North,0,4.0,8.0,89,0.00,,,0.00,meteohub,2013-01-25 23:00:00,
2013-01-26 01:05:00,43.2,40.1,-100.00,NE,45,6.0,9.0,89,0.00,,,0.00,meteohub,2013-01-25 23:05:00,
2013-01-26 01:10:00,43.3,40.6,-100.00,North,0,4.0,9.0,90,0.00,,,0.00,meteohub,2013-01-25 23:10:00,
2013-01-26 01:16:00,43.3,40.6,-100.00,NE,45,3.0,9.0,90,0.00,,,0.00,meteohub,2013-01-25 23:16:00,
2013-01-26 01:21:00,43.2,40.5,-100.00,NE,45,2.0,9.0,90,0.00,,,0.00,meteohub,2013-01-25 23:21:00,
2013-01-26 01:26:00,43.2,40.6,-100.00,NE,45,1.0,9.0,91,0.00,,,0.00,meteohub,2013-01-25 23:26:00,
2013-01-26 01:31:00,43.0,40.5,-100.00,NE,45,4.0,10.0,91,0.00,,,0.00,meteohub,2013-01-25 23:31:00,
2013-01-26 01:36:00,42.8,40.3,-100.00,NE,45,4.0,10.0,91,0.00,,,0.00,meteohub,2013-01-25 23:36:00,
2013-01-26 01:41:00,42.8,40.3,-100.00,NE,45,2.0,10.0,91,0.00,,,0.00,meteohub,2013-01-25 23:41:00,
2013-01-26 01:46:00,43.0,40.5,-100.00,NE,45,3.0,10.0,91,0.00,,,0.00,meteohub,2013-01-25 23:46:00,
2013-01-26 01:51:00,42.8,40.3,-100.00,NE,45,3.0,8.0,91,0.00,,,0.00,meteohub,2013-01-25 23:51:00,
2013-01-26 01:56:00,43.0,40.8,-100.00,NE,45,5.0,7.0,92,0.00,,,0.00,meteohub,2013-01-25 23:56:00,
2013-01-26 02:01:00,43.0,40.8,-100.00,NNE,22,4.0,7.0,92,0.00,,,0.00,meteohub,2013-01-26 00:01:00,
2013-01-26 02:06:00,43.0,40.8,-100.00,NE,45,3.0,7.0,92,0.00,,,0.00,meteohub,2013-01-26 00:06:00,
2013-01-26 02:11:00,43.0,40.8,-100.00,NE,45,1.0,6.0,92,0.00,,,0.00,meteohub,2013-01-26 00:11:00,
2013-01-26 02:16:00,43.0,40.8,-100.00,NE,45,3.0,8.0,92,0.00,,,0.00,meteohub,2013-01-26 00:16:00,
2013-01-26 02:22:00,43.0,40.8,-100.00,NE,45,4.0,8.0,92,0.00,,,0.00,meteohub,2013-01-26 00:22:00,
2013-01-26 02:27:00,43.0,40.8,-100.00,NE,45,3.0,8.0,92,0.00,,,0.00,meteohub,2013-01-26 00:27:00,
2013-01-26 02:32:00,43.0,40.8,-100.00,NE,45,4.0,7.0,92,0.00,,,0.00,meteohub,2013-01-26 00:32:00,
2013-01-26 02:37:00,43.0,40.8,-100.00,North,0,4.0,9.0,92,0.00,,,0.00,meteohub,2013-01-26 00:37:00,
2013-01-26 02:42:00,43.0,40.8,-100.00,NE,45,3.0,9.0,92,0.00,,,0.00,meteohub,2013-01-26 00:42:00,
2013-01-26 02:47:00,43.0,40.8,-100.00,NE,45,3.0,9.0,92,0.00,,,0.00,meteohub,2013-01-26 00:47:00,
2013-01-26 02:52:00,43.0,40.8,-100.00,NE,45,4.0,7.0,92,0.00,,,0.00,meteohub,2013-01-26 00:52:00,
2013-01-26 02:57:00,42.8,40.6,-100.00,North,0,2.0,7.0,92,0.00,,,0.00,meteohub,2013-01-26 00:57:00,
2013-01-26 03:02:00,42.8,41.0,-100.00,NNE,22,5.0,7.0,93,0.00,,,0.00,meteohub,2013-01-26 01:02:00,
2013-01-26 03:07:00,42.8,41.0,-100.00,NE,45,2.0,6.0,93,0.00,,,0.00,meteohub,2013-01-26 01:07:00,
2013-01-26 03:14:00,42.6,41.0,-100.00,NNE,22,3.0,8.0,94,0.00,,,0.00,meteohub,2013-01-26 01:14:00,
2013-01-26 03:19:00,42.6,41.0,-100.00,NE,45,1.0,9.0,94,0.00,,,0.00,meteohub,2013-01-26 01:19:00,
2013-01-26 03:24:00,42.8,41.2,-100.00,NE,45,4.0,9.0,94,0.00,,,0.00,meteohub,2013-01-26 01:24:00,
2013-01-26 03:29:00,42.8,41.2,-100.00,NE,45,4.0,9.0,94,0.00,,,0.00,meteohub,2013-01-26 01:29:00,
2013-01-26 03:34:00,42.8,41.2,-100.00,NE,45,4.0,8.0,94,0.00,,,0.00,meteohub,2013-01-26 01:34:00,
2013-01-26 03:39:00,42.8,41.2,-100.00,NNE,22,4.0,6.0,94,0.00,,,0.00,meteohub,2013-01-26 01:39:00,
2013-01-26 03:44:00,43.0,41.4,-100.00,NE,45,3.0,6.0,94,0.00,,,0.00,meteohub,2013-01-26 01:44:00,
2013-01-26 03:49:00,43.0,41.4,-100.00,NE,45,5.0,6.0,94,0.00,,,0.00,meteohub,2013-01-26 01:49:00,
2013-01-26 03:54:00,43.0,41.4,-100.00,North,0,2.0,6.0,94,0.00,,,0.00,meteohub,2013-01-26 01:54:00,
2013-01-26 04:00:00,43.0,41.4,-100.00,NE,45,2.0,8.0,94,0.00,,,0.00,meteohub,2013-01-26 02:00:00,
2013-01-26 04:05:00,43.0,41.4,-100.00,NE,45,2.0,8.0,94,0.00,,,0.00,meteohub,2013-01-26 02:05:00,
2013-01-26 04:10:00,43.0,41.4,-100.00,NNE,22,3.0,7.0,94,0.00,,,0.00,meteohub,2013-01-26 02:10:00,
2013-01-26 04:15:00,43.0,41.4,-100.00,NE,45,6.0,7.0,94,0.00,,,0.00,meteohub,2013-01-26 02:15:00,
2013-01-26 04:20:00,43.0,41.4,-100.00,NE,45,4.0,8.0,94,0.00,,,0.00,meteohub,2013-01-26 02:20:00,
2013-01-26 04:25:00,43.2,41.5,-100.00,NE,45,1.0,8.0,94,0.00,,,0.00,meteohub,2013-01-26 02:25:00,
2013-01-26 04:30:00,43.2,41.5,-100.00,NE,45,2.0,8.0,94,0.00,,,0.00,meteohub,2013-01-26 02:30:00,
2013-01-26 04:35:00,43.3,41.7,-100.00,NE,45,0.0,6.0,94,0.00,,,0.00,meteohub,2013-01-26 02:35:00,
2013-01-26 04:40:00,43.3,41.7,-100.00,NE,45,1.0,6.0,94,0.00,,,0.00,meteohub,2013-01-26 02:40:00,
2013-01-26 04:45:00,43.3,41.7,-100.00,NE,45,1.0,6.0,94,0.00,,,0.00,meteohub,2013-01-26 02:45:00,
2013-01-26 04:50:00,43.3,41.7,-100.00,NE,45,0.0,4.0,94,0.00,,,0.00,meteohub,2013-01-26 02:50:00,
2013-01-26 04:55:00,43.3,41.7,-100.00,NE,45,4.0,4.0,94,0.00,,,0.00,meteohub,2013-01-26 02:55:00,
2013-01-26 05:01:00,43.3,41.7,-100.00,NE,45,2.0,6.0,94,0.00,,,0.00,meteohub,2013-01-26 03:01:00,
2013-01-26 05:06:00,43.5,41.7,-100.00,NE,45,1.0,6.0,93,0.00,,,0.00,meteohub,2013-01-26 03:06:00,
2013-01-26 05:11:00,43.3,41.5,-100.00,NE,45,3.0,6.0,93,0.00,,,0.00,meteohub,2013-01-26 03:11:00,
2013-01-26 05:16:00,43.3,41.5,-100.00,North,0,3.0,7.0,93,0.00,,,0.00,meteohub,2013-01-26 03:16:00,
2013-01-26 05:21:00,43.3,41.5,-100.00,NE,45,3.0,7.0,93,0.00,,,0.00,meteohub,2013-01-26 03:21:00,
2013-01-26 05:26:00,43.3,41.5,-100.00,North,0,5.0,9.0,93,0.00,,,0.00,meteohub,2013-01-26 03:26:00,
2013-01-26 05:31:00,43.3,41.7,-100.00,NE,45,3.0,9.0,94,0.00,,,0.00,meteohub,2013-01-26 03:31:00,
2013-01-26 05:36:00,43.3,41.7,-100.00,NE,45,4.0,8.0,94,0.00,,,0.00,meteohub,2013-01-26 03:36:00,
2013-01-26 05:41:00,43.3,41.7,-100.00,NE,45,4.0,7.0,94,0.00,,,0.00,meteohub,2013-01-26 03:41:00,
2013-01-26 05:46:00,43.3,41.7,-100.00,NE,45,2.0,6.0,94,0.00,,,0.00,meteohub,2013-01-26 03:46:00,
2013-01-26 05:51:00,43.3,42.1,-100.00,NE,45,3.0,7.0,95,0.00,,,0.00,meteohub,2013-01-26 03:51:00,
2013-01-26 05:56:00,43.3,42.1,-100.00,NE,45,3.0,10.0,95,0.00,,,0.00,meteohub,2013-01-26 03:56:00,
2013-01-26 06:01:00,43.3,42.1,-100.00,North,0,3.0,10.0,95,0.00,,,0.00,meteohub,2013-01-26 04:01:00,
2013-01-26 06:07:00,43.5,42.3,-100.00,NE,45,3.0,10.0,95,0.00,,,0.00,meteohub,2013-01-26 04:07:00,
2013-01-26 06:12:00,43.5,42.3,-100.00,NE,45,3.0,8.0,95,0.00,,,0.00,meteohub,2013-01-26 04:12:00,
2013-01-26 06:17:00,43.5,42.3,-100.00,NE,45,2.0,8.0,95,0.00,,,0.00,meteohub,2013-01-26 04:17:00,
2013-01-26 06:22:00,43.5,42.3,-100.00,NE,45,3.0,8.0,95,0.00,,,0.00,meteohub,2013-01-26 04:22:00,
2013-01-26 06:27:00,43.7,42.4,-100.00,NNE,22,1.0,8.0,95,0.00,,,0.00,meteohub,2013-01-26 04:27:00,
2013-01-26 06:32:00,43.7,42.4,-100.00,North,0,4.0,7.0,95,0.00,,,0.00,meteohub,2013-01-26 04:32:00,
2013-01-26 06:37:00,43.7,42.4,-100.00,NE,45,3.0,8.0,95,0.00,,,0.00,meteohub,2013-01-26 04:37:00,
2013-01-26 06:42:00,43.7,42.4,-100.00,NNE,22,3.0,8.0,95,0.00,,,0.00,meteohub,2013-01-26 04:42:00,
2013-01-26 06:47:00,43.9,42.6,-100.00,NE,45,1.0,8.0,95,0.00,,,0.00,meteohub,2013-01-26 04:47:00,
2013-01-26 06:52:00,43.9,42.6,-100.00,NE,45,2.0,7.0,95,0.00,,,0.00,meteohub,2013-01-26 04:52:00,
2013-01-26 06:57:00,44.1,42.4,-100.00,NE,45,5.0,7.0,94,0.00,,,0.00,meteohub,2013-01-26 04:57:00,
2013-01-26 07:01:00,44.1,42.4,-100.00,NNE,22,2.0,8.0,94,0.00,,,0.00,meteohub,2013-01-26 05:01:00,
2013-01-26 07:02:00,44.1,42.4,-100.00,NE,45,5.0,8.0,94,0.00,,,0.00,meteohub,2013-01-26 05:02:00,
2013-01-26 07:05:00,44.1,42.4,-100.00,NNE,22,1.0,8.0,94,0.00,,,0.00,meteohub,2013-01-26 05:05:00,
2013-01-26 07:06:00,44.1,42.4,-100.00,NE,45,2.0,8.0,94,0.00,,,0.00,meteohub,2013-01-26 05:06:00,
2013-01-26 07:11:00,44.1,42.4,-100.00,NNE,22,1.0,8.0,94,0.00,,,0.00,meteohub,2013-01-26 05:11:00,
2013-01-26 07:16:00,44.2,42.6,-100.00,NE,45,3.0,6.0,94,0.00,,,0.00,meteohub,2013-01-26 05:16:00,
2013-01-26 07:21:00,44.4,42.8,-100.00,NE,45,1.0,6.0,94,0.00,,,0.00,meteohub,2013-01-26 05:21:00,
2013-01-26 07:26:00,44.4,42.8,-100.00,NE,45,0.0,4.0,94,0.00,,,0.00,meteohub,2013-01-26 05:26:00,
2013-01-26 07:31:00,44.4,42.4,-100.00,NNE,22,1.0,7.0,93,0.00,,,0.00,meteohub,2013-01-26 05:31:00,
2013-01-26 07:36:00,44.6,42.6,-100.00,NE,45,3.0,7.0,93,0.00,,,0.00,meteohub,2013-01-26 05:36:00,
2013-01-26 07:41:00,44.6,42.6,-100.00,East,90,1.0,5.0,93,0.00,,,0.00,meteohub,2013-01-26 05:41:00,
2013-01-26 07:46:00,44.4,42.4,-100.00,NNE,22,0.0,7.0,93,0.00,,,0.00,meteohub,2013-01-26 05:46:00,
2013-01-26 07:51:00,44.6,42.4,-100.00,NE,45,3.0,7.0,92,0.00,,,0.00,meteohub,2013-01-26 05:51:00,
2013-01-26 07:56:00,44.4,42.4,-100.00,North,0,2.0,7.0,93,0.00,,,0.00,meteohub,2013-01-26 05:56:00,
2013-01-26 08:02:00,44.6,42.6,-100.00,North,0,2.0,5.0,93,0.00,,,0.00,meteohub,2013-01-26 06:02:00,
2013-01-26 08:07:00,44.6,42.6,-100.00,NE,45,4.0,5.0,93,0.00,,,0.00,meteohub,2013-01-26 06:07:00,
2013-01-26 08:12:00,44.4,42.4,-100.00,NE,45,5.0,8.0,93,0.00,,,0.00,meteohub,2013-01-26 06:12:00,
2013-01-26 08:17:00,44.4,42.4,-100.00,NE,45,1.0,8.0,93,0.00,,,0.00,meteohub,2013-01-26 06:17:00,
2013-01-26 08:22:00,44.6,42.6,-100.00,NE,45,4.0,8.0,93,0.00,,,0.00,meteohub,2013-01-26 06:22:00,
2013-01-26 08:28:00,44.6,42.6,-100.00,NE,45,3.0,6.0,93,0.00,,,0.00,meteohub,2013-01-26 06:28:00,
2013-01-26 08:33:00,44.6,42.6,-100.00,NE,45,3.0,7.0,93,0.00,,,0.00,meteohub,2013-01-26 06:33:00,
2013-01-26 08:38:00,44.6,43.0,-100.00,NE,45,1.0,7.0,94,0.00,,,0.00,meteohub,2013-01-26 06:38:00,
2013-01-26 08:43:00,44.6,43.0,-100.00,North,0,3.0,7.0,94,0.00,,,0.00,meteohub,2013-01-26 06:43:00,
2013-01-26 08:48:00,44.6,43.0,-100.00,NE,45,5.0,7.0,94,0.00,,,0.00,meteohub,2013-01-26 06:48:00,
2013-01-26 08:53:00,44.6,43.0,-100.00,NE,45,1.0,7.0,94,0.00,,,0.00,meteohub,2013-01-26 06:53:00,
2013-01-26 08:58:00,44.6,43.0,-100.00,NE,45,2.0,7.0,94,0.00,,,0.00,meteohub,2013-01-26 06:58:00,
2013-01-26 09:03:00,44.6,43.3,-100.00,NE,45,3.0,9.0,95,0.00,,,0.00,meteohub,2013-01-26 07:03:00,
2013-01-26 09:08:00,44.8,43.5,-100.00,NE,45,1.0,9.0,95,0.00,,,0.00,meteohub,2013-01-26 07:08:00,
2013-01-26 09:13:00,44.8,43.5,-100.00,NE,45,0.0,9.0,95,0.00,,,0.00,meteohub,2013-01-26 07:13:00,
2013-01-26 09:18:00,44.8,43.5,-100.00,NE,45,2.0,6.0,95,0.00,,,0.00,meteohub,2013-01-26 07:18:00,
2013-01-26 09:24:00,44.8,43.5,-100.00,NNE,22,1.0,6.0,95,0.00,,,0.00,meteohub,2013-01-26 07:24:00,
2013-01-26 09:29:00,44.8,43.5,-100.00,NE,45,5.0,8.0,95,0.00,,,0.00,meteohub,2013-01-26 07:29:00,
2013-01-26 09:34:00,45.0,43.7,-100.00,North,0,5.0,8.0,95,0.00,,,0.00,meteohub,2013-01-26 07:34:00,
2013-01-26 09:39:00,45.0,43.9,-100.00,South,180,1.0,8.0,96,0.00,,,0.00,meteohub,2013-01-26 07:39:00,
2013-01-26 09:44:00,45.1,44.1,-100.00,NE,45,2.0,8.0,96,0.00,,,0.00,meteohub,2013-01-26 07:44:00,
2013-01-26 09:49:00,45.1,44.1,-100.00,NE,45,4.0,5.0,96,0.00,,,0.00,meteohub,2013-01-26 07:49:00,
2013-01-26 09:54:00,45.1,44.1,-100.00,NE,45,1.0,5.0,96,0.00,,,0.00,meteohub,2013-01-26 07:54:00,
2013-01-26 10:00:00,45.3,44.1,-100.00,NE,45,2.0,4.0,95,0.00,,,0.00,meteohub,2013-01-26 08:00:00,
2013-01-26 10:05:00,45.3,44.1,-100.00,NE,45,2.0,4.0,95,0.00,,,0.00,meteohub,2013-01-26 08:05:00,
2013-01-26 10:10:00,45.3,44.1,-100.00,NE,45,1.0,8.0,95,0.00,,,0.00,meteohub,2013-01-26 08:10:00,
2013-01-26 10:15:00,45.3,44.1,-100.00,NE,45,1.0,8.0,95,0.00,,,0.00,meteohub,2013-01-26 08:15:00,
2013-01-26 10:20:00,45.5,44.2,-100.00,NE,45,3.0,8.0,95,0.00,,,0.00,meteohub,2013-01-26 08:20:00,
2013-01-26 10:25:00,45.5,44.2,-100.00,NE,45,5.0,5.0,95,0.00,,,0.00,meteohub,2013-01-26 08:25:00,
2013-01-26 10:30:00,45.7,44.4,-100.00,NE,45,2.0,5.0,95,0.00,,,0.00,meteohub,2013-01-26 08:30:00,
2013-01-26 10:35:00,45.7,44.4,-100.00,NE,45,1.0,9.0,95,0.00,,,0.00,meteohub,2013-01-26 08:35:00,
2013-01-26 10:40:00,45.7,44.4,-100.00,NE,45,5.0,9.0,95,0.00,,,0.00,meteohub,2013-01-26 08:40:00,
2013-01-26 10:45:00,45.7,44.4,-100.00,NNE,22,1.0,9.0,95,0.00,,,0.00,meteohub,2013-01-26 08:45:00,
2013-01-26 10:50:00,45.9,44.4,-100.00,NE,45,0.0,5.0,95,0.00,,,0.00,meteohub,2013-01-26 08:50:00,
2013-01-26 10:55:00,45.9,44.2,-100.00,NNE,22,3.0,5.0,94,0.00,,,0.00,meteohub,2013-01-26 08:55:00,
2013-01-26 11:00:00,45.9,44.2,-100.00,NE,45,2.0,6.0,94,0.00,,,0.00,meteohub,2013-01-26 09:00:00,
2013-01-26 11:05:00,45.9,44.2,-100.00,NE,45,3.0,6.0,94,0.00,,,0.00,meteohub,2013-01-26 09:05:00,
2013-01-26 11:11:00,45.9,44.2,-100.00,North,0,3.0,6.0,94,0.00,,,0.00,meteohub,2013-01-26 09:11:00,
2013-01-26 11:16:00,46.0,44.4,-100.00,North,0,2.0,6.0,94,0.00,,,0.00,meteohub,2013-01-26 09:16:00,
2013-01-26 11:21:00,46.0,44.4,-100.00,NE,45,3.0,6.0,94,0.00,,,0.00,meteohub,2013-01-26 09:21:00,
2013-01-26 11:26:00,46.0,44.4,-100.00,NNE,22,1.0,6.0,94,0.00,,,0.00,meteohub,2013-01-26 09:26:00,
2013-01-26 11:31:00,46.0,44.4,-100.00,NE,45,0.0,4.0,94,0.00,,,0.00,meteohub,2013-01-26 09:31:00,
2013-01-26 11:36:00,46.0,44.4,-100.00,NE,45,2.0,5.0,94,0.00,,,0.00,meteohub,2013-01-26 09:36:00,
2013-01-26 11:41:00,46.0,44.4,-100.00,NE,45,4.0,5.0,94,0.00,,,0.00,meteohub,2013-01-26 09:41:00,
2013-01-26 11:46:00,46.0,44.6,-100.00,NNE,22,1.0,6.0,95,0.00,,,0.00,meteohub,2013-01-26 09:46:00,
2013-01-26 11:51:00,46.2,44.8,-100.00,NE,45,4.0,6.0,95,0.00,,,0.00,meteohub,2013-01-26 09:51:00,
2013-01-26 11:56:00,46.2,44.6,-100.00,East,90,1.0,6.0,94,0.00,,,0.00,meteohub,2013-01-26 09:56:00,
2013-01-26 12:01:00,46.2,44.6,-100.00,NE,45,3.0,6.0,94,0.00,,,0.00,meteohub,2013-01-26 10:01:00,
2013-01-26 12:06:00,46.2,44.6,-100.00,North,0,1.0,6.0,94,0.00,,,0.00,meteohub,2013-01-26 10:06:00,
2013-01-26 12:11:00,46.4,44.8,-100.00,West,270,0.0,6.0,94,0.00,,,0.00,meteohub,2013-01-26 10:11:00,
2013-01-26 12:17:00,46.4,44.8,-100.00,NE,45,3.0,6.0,94,0.00,,,0.00,meteohub,2013-01-26 10:17:00,
2013-01-26 12:22:00,46.4,44.8,-100.00,North,0,1.0,6.0,94,0.00,,,0.00,meteohub,2013-01-26 10:22:00,
2013-01-26 12:27:00,46.4,44.8,-100.00,NNE,22,1.0,6.0,94,0.00,,,0.00,meteohub,2013-01-26 10:27:00,
2013-01-26 12:32:00,46.4,44.8,-100.00,NE,45,3.0,6.0,94,0.00,,,0.00,meteohub,2013-01-26 10:32:00,
2013-01-26 12:37:00,46.6,44.6,-100.00,North,0,4.0,6.0,93,0.00,,,0.00,meteohub,2013-01-26 10:37:00,
2013-01-26 12:42:00,46.8,44.8,-100.00,WSW,248,0.0,5.0,93,0.00,,,0.00,meteohub,2013-01-26 10:42:00,
2013-01-26 12:47:00,46.9,45.3,-100.00,South,180,0.0,5.0,94,0.00,,,0.00,meteohub,2013-01-26 10:47:00,
2013-01-26 12:52:00,46.9,45.3,-100.00,South,180,2.0,4.0,94,0.00,,,0.00,meteohub,2013-01-26 10:52:00,
2013-01-26 12:57:00,46.9,45.0,-100.00,NNE,22,2.0,4.0,93,0.00,,,0.00,meteohub,2013-01-26 10:57:00,
2013-01-26 13:02:00,46.9,45.0,-100.00,NE,45,4.0,4.0,93,0.00,,,0.00,meteohub,2013-01-26 11:02:00,
2013-01-26 13:07:00,46.9,45.0,-100.00,North,0,4.0,5.0,93,0.00,,,0.00,meteohub,2013-01-26 11:07:00,
2013-01-26 13:12:00,46.8,44.8,-100.00,NE,45,5.0,6.0,93,0.04,,,0.04,meteohub,2013-01-26 11:12:00,
2013-01-26 13:18:00,46.8,44.6,-100.00,NNE,22,2.0,6.0,92,0.04,,,0.04,meteohub,2013-01-26 11:18:00,
2013-01-26 13:23:00,46.6,44.6,-100.00,NE,45,2.0,7.0,93,0.04,,,0.04,meteohub,2013-01-26 11:23:00,
2013-01-26 13:28:00,46.6,44.6,-100.00,North,0,2.0,7.0,93,0.04,,,0.04,meteohub,2013-01-26 11:28:00,
2013-01-26 13:33:00,46.8,44.8,-100.00,NE,45,3.0,4.0,93,0.04,,,0.04,meteohub,2013-01-26 11:33:00,
2013-01-26 13:38:00,46.8,44.8,-100.00,NE,45,3.0,6.0,93,0.04,,,0.04,meteohub,2013-01-26 11:38:00,
2013-01-26 13:43:00,46.8,44.8,-100.00,East,90,5.0,6.0,93,0.04,,,0.04,meteohub,2013-01-26 11:43:00,
2013-01-26 13:48:00,46.8,44.8,-100.00,North,0,3.0,6.0,93,0.04,,,0.04,meteohub,2013-01-26 11:48:00,
2013-01-26 13:53:00,46.8,44.6,-100.00,NE,45,2.0,9.0,92,0.04,,,0.04,meteohub,2013-01-26 11:53:00,
2013-01-26 13:58:00,46.6,44.4,-100.00,NE,45,4.0,9.0,92,0.04,,,0.04,meteohub,2013-01-26 11:58:00,
2013-01-26 14:03:00,46.8,44.6,-100.00,NE,45,0.0,6.0,92,0.04,,,0.04,meteohub,2013-01-26 12:03:00,
2013-01-26 14:08:00,46.8,44.6,-100.00,NE,45,3.0,6.0,92,0.04,,,0.04,meteohub,2013-01-26 12:08:00,
2013-01-26 14:13:00,46.8,44.6,-100.00,NE,45,3.0,6.0,92,0.00,,,0.04,meteohub,2013-01-26 12:13:00,
2013-01-26 14:18:00,46.9,44.8,-100.00,NE,45,1.0,6.0,92,0.00,,,0.04,meteohub,2013-01-26 12:18:00,
2013-01-26 14:24:00,47.1,45.0,-100.00,South,180,0.0,6.0,92,0.00,,,0.04,meteohub,2013-01-26 12:24:00,
2013-01-26 14:29:00,47.1,45.0,-100.00,SE,135,0.0,6.0,92,0.00,,,0.04,meteohub,2013-01-26 12:29:00,
2013-01-26 14:34:00,47.1,45.0,-100.00,SE,135,0.0,5.0,92,0.00,,,0.04,meteohub,2013-01-26 12:34:00,
2013-01-26 14:39:00,47.1,45.0,-100.00,NE,45,4.0,4.0,92,0.00,,,0.04,meteohub,2013-01-26 12:39:00,
2013-01-26 14:44:00,46.9,44.4,-100.00,NE,45,2.0,3.0,91,0.00,,,0.04,meteohub,2013-01-26 12:44:00,
2013-01-26 14:49:00,47.1,44.6,-100.00,NE,45,1.0,6.0,91,0.00,,,0.04,meteohub,2013-01-26 12:49:00,
2013-01-26 14:54:00,46.9,44.4,-100.00,NE,45,2.0,6.0,91,0.00,,,0.04,meteohub,2013-01-26 12:54:00,
2013-01-26 14:59:00,46.9,44.4,-100.00,NE,45,3.0,6.0,91,0.00,,,0.04,meteohub,2013-01-26 12:59:00,
2013-01-26 15:04:00,46.9,44.8,-100.00,NNE,22,2.0,5.0,92,0.00,,,0.04,meteohub,2013-01-26 13:04:00,
2013-01-26 15:09:00,46.9,44.8,-100.00,NE,45,0.0,7.0,92,0.00,,,0.04,meteohub,2013-01-26 13:09:00,
2013-01-26 15:14:00,46.9,44.8,-100.00,NE,45,1.0,7.0,92,0.00,,,0.04,meteohub,2013-01-26 13:14:00,
2013-01-26 15:20:00,46.9,44.8,-100.00,NNE,22,0.0,7.0,92,0.00,,,0.04,meteohub,2013-01-26 13:20:00,
2013-01-26 15:25:00,46.8,44.6,-100.00,North,0,3.0,3.0,92,0.00,,,0.04,meteohub,2013-01-26 13:25:00,
2013-01-26 15:30:00,46.8,44.6,-100.00,North,0,2.0,6.0,92,0.00,,,0.04,meteohub,2013-01-26 13:30:00,
2013-01-26 15:35:00,46.9,45.0,-100.00,NE,45,1.0,6.0,93,0.00,,,0.04,meteohub,2013-01-26 13:35:00,
2013-01-26 15:40:00,46.9,45.0,-100.00,NE,45,4.0,4.0,93,0.00,,,0.04,meteohub,2013-01-26 13:40:00,
2013-01-26 15:45:00,46.8,44.8,-100.00,NE,45,2.0,5.0,93,0.00,,,0.04,meteohub,2013-01-26 13:45:00,
2013-01-26 15:50:00,46.8,44.8,-100.00,East,90,0.0,5.0,93,0.00,,,0.04,meteohub,2013-01-26 13:50:00,
2013-01-26 15:55:00,46.6,44.6,-100.00,NE,45,5.0,5.0,93,0.00,,,0.04,meteohub,2013-01-26 13:55:00,
2013-01-26 16:00:00,46.6,44.6,-100.00,NE,45,0.0,9.0,93,0.00,,,0.04,meteohub,2013-01-26 14:00:00,
2013-01-26 16:05:00,46.4,44.4,-100.00,North,0,2.0,9.0,93,0.00,,,0.04,meteohub,2013-01-26 14:05:00,
2013-01-26 16:10:00,46.4,44.4,-100.00,NE,45,2.0,9.0,93,0.00,,,0.04,meteohub,2013-01-26 14:10:00,
2013-01-26 16:16:00,46.4,44.8,-100.00,NNE,22,2.0,8.0,94,0.00,,,0.04,meteohub,2013-01-26 14:16:00,
2013-01-26 16:21:00,46.2,44.6,-100.00,NE,45,5.0,8.0,94,0.00,,,0.04,meteohub,2013-01-26 14:21:00,
2013-01-26 16:26:00,46.4,44.8,-100.00,NE,45,1.0,8.0,94,0.00,,,0.04,meteohub,2013-01-26 14:26:00,
2013-01-26 16:31:00,46.4,44.8,-100.00,NE,45,1.0,6.0,94,0.00,,,0.04,meteohub,2013-01-26 14:31:00,
2013-01-26 16:36:00,46.4,44.8,-100.00,East,90,4.0,5.0,94,0.00,,,0.04,meteohub,2013-01-26 14:36:00,
2013-01-26 16:41:00,46.2,44.6,-100.00,NE,45,0.0,6.0,94,0.00,,,0.04,meteohub,2013-01-26 14:41:00,
2013-01-26 16:46:00,46.4,44.8,-100.00,NE,45,2.0,6.0,94,0.00,,,0.04,meteohub,2013-01-26 14:46:00,
2013-01-26 16:51:00,46.2,44.6,-100.00,NE,45,1.0,6.0,94,0.00,,,0.04,meteohub,2013-01-26 14:51:00,
2013-01-26 16:56:00,46.2,44.6,-100.00,NE,45,0.0,5.0,94,0.00,,,0.04,meteohub,2013-01-26 14:56:00,
2013-01-26 17:01:00,46.2,44.6,-100.00,NE,45,1.0,5.0,94,0.00,,,0.04,meteohub,2013-01-26 15:01:00,
2013-01-26 17:06:00,46.2,44.6,-100.00,NE,45,3.0,5.0,94,0.00,,,0.04,meteohub,2013-01-26 15:06:00,
2013-01-26 17:11:00,46.2,44.6,-100.00,SE,135,2.0,6.0,94,0.00,,,0.04,meteohub,2013-01-26 15:11:00,
2013-01-26 17:16:00,46.2,44.6,-100.00,North,0,1.0,7.0,94,0.00,,,0.04,meteohub,2013-01-26 15:16:00,
2013-01-26 17:22:00,46.2,44.8,-100.00,NE,45,0.0,7.0,95,0.00,,,0.04,meteohub,2013-01-26 15:22:00,
2013-01-26 17:27:00,46.2,44.8,-100.00,NE,45,2.0,7.0,95,0.00,,,0.04,meteohub,2013-01-26 15:27:00,
2013-01-26 17:32:00,46.2,44.8,-100.00,NE,45,2.0,6.0,95,0.00,,,0.04,meteohub,2013-01-26 15:32:00,
2013-01-26 17:37:00,46.0,44.6,-100.00,NE,45,3.0,8.0,95,0.00,,,0.04,meteohub,2013-01-26 15:37:00,
2013-01-26 17:42:00,46.0,44.6,-100.00,North,0,6.0,8.0,95,0.00,,,0.04,meteohub,2013-01-26 15:42:00,
2013-01-26 17:47:00,46.0,44.6,-100.00,NE,45,1.0,8.0,95,0.00,,,0.04,meteohub,2013-01-26 15:47:00,
2013-01-26 17:52:00,46.0,45.0,-100.00,NE,45,0.0,8.0,96,0.00,,,0.04,meteohub,2013-01-26 15:52:00,
2013-01-26 17:57:00,46.2,45.1,-100.00,NE,45,3.0,8.0,96,0.00,,,0.04,meteohub,2013-01-26 15:57:00,
2013-01-26 18:02:00,46.2,45.1,-100.00,NE,45,2.0,6.0,96,0.00,,,0.04,meteohub,2013-01-26 16:02:00,
2013-01-26 18:07:00,46.2,45.1,-100.00,NE,45,0.0,6.0,96,0.00,,,0.04,meteohub,2013-01-26 16:07:00,
2013-01-26 18:12:00,46.2,45.1,-100.00,NE,45,0.0,5.0,96,0.00,,,0.04,meteohub,2013-01-26 16:12:00,
2013-01-26 18:17:00,46.4,45.0,-100.00,NE,45,0.0,5.0,95,0.00,,,0.04,meteohub,2013-01-26 16:17:00,
2013-01-26 18:22:00,46.4,45.0,-100.00,NE,45,0.0,5.0,95,0.00,,,0.04,meteohub,2013-01-26 16:22:00,
2013-01-26 18:28:00,46.4,45.0,-100.00,NE,45,2.0,5.0,95,0.00,,,0.04,meteohub,2013-01-26 16:28:00,
2013-01-26 18:33:00,46.4,45.0,-100.00,NE,45,2.0,5.0,95,0.00,,,0.04,meteohub,2013-01-26 16:33:00,
2013-01-26 18:38:00,46.4,45.0,-100.00,NE,45,0.0,6.0,95,0.00,,,0.04,meteohub,2013-01-26 16:38:00,
2013-01-26 18:43:00,46.4,45.0,-100.00,NE,45,2.0,6.0,95,0.00,,,0.04,meteohub,2013-01-26 16:43:00,
2013-01-26 18:48:00,46.2,45.1,-100.00,North,0,1.0,6.0,96,0.00,,,0.04,meteohub,2013-01-26 16:48:00,
2013-01-26 18:53:00,46.2,45.1,-100.00,NE,45,2.0,4.0,96,0.00,,,0.04,meteohub,2013-01-26 16:53:00,
2013-01-26 18:58:00,46.2,45.1,-100.00,NNE,22,0.0,5.0,96,0.00,,,0.04,meteohub,2013-01-26 16:58:00,
2013-01-26 19:03:00,46.2,45.1,-100.00,NNE,22,2.0,5.0,96,0.00,,,0.04,meteohub,2013-01-26 17:03:00,
2013-01-26 19:08:00,46.4,45.3,-100.00,East,90,3.0,5.0,96,0.00,,,0.04,meteohub,2013-01-26 17:08:00,
2013-01-26 19:13:00,46.4,45.3,-100.00,North,0,2.0,5.0,96,0.00,,,0.04,meteohub,2013-01-26 17:13:00,
2013-01-26 19:18:00,46.4,45.3,-100.00,NE,45,2.0,5.0,96,0.00,,,0.04,meteohub,2013-01-26 17:18:00,
2013-01-26 19:23:00,46.2,45.5,-100.00,NE,45,2.0,6.0,97,0.00,,,0.04,meteohub,2013-01-26 17:23:00,
2013-01-26 19:29:00,46.4,45.7,-100.00,North,0,0.0,6.0,97,0.00,,,0.04,meteohub,2013-01-26 17:29:00,
2013-01-26 19:34:00,46.4,45.7,-100.00,North,0,1.0,6.0,97,0.00,,,0.04,meteohub,2013-01-26 17:34:00,
2013-01-26 19:39:00,46.4,45.7,-100.00,NE,45,2.0,6.0,97,0.00,,,0.04,meteohub,2013-01-26 17:39:00,
2013-01-26 19:44:00,46.4,45.7,-100.00,NE,45,8.0,8.0,97,0.00,,,0.04,meteohub,2013-01-26 17:44:00,
2013-01-26 19:49:00,46.4,45.7,-100.00,North,0,2.0,4.0,97,0.00,,,0.04,meteohub,2013-01-26 17:49:00,
2013-01-26 19:54:00,46.4,45.7,-100.00,NE,45,2.0,8.0,97,0.00,,,0.04,meteohub,2013-01-26 17:54:00,
2013-01-26 19:59:00,46.4,45.7,-100.00,NE,45,3.0,8.0,97,0.00,,,0.04,meteohub,2013-01-26 17:59:00,
2013-01-26 20:04:00,46.4,45.7,-100.00,NE,45,1.0,7.0,97,0.00,,,0.04,meteohub,2013-01-26 18:04:00,
2013-01-26 20:09:00,46.4,45.9,-100.00,NE,45,1.0,6.0,98,0.00,,,0.04,meteohub,2013-01-26 18:09:00,
2013-01-26 20:14:00,46.4,45.9,-100.00,NE,45,0.0,6.0,98,0.00,,,0.04,meteohub,2013-01-26 18:14:00,
2013-01-26 20:19:00,46.4,45.9,-100.00,NE,45,3.0,4.0,98,0.00,,,0.04,meteohub,2013-01-26 18:19:00,
2013-01-26 20:25:00,46.4,45.9,-100.00,NE,45,0.0,4.0,98,0.00,,,0.04,meteohub,2013-01-26 18:25:00,
2013-01-26 20:30:00,46.4,45.9,-100.00,NE,45,0.0,4.0,98,0.00,,,0.04,meteohub,2013-01-26 18:30:00,
2013-01-26 20:35:00,46.4,45.9,-100.00,NE,45,1.0,4.0,98,0.00,,,0.04,meteohub,2013-01-26 18:35:00,
2013-01-26 20:40:00,46.4,45.9,-100.00,NNE,22,2.0,4.0,98,0.00,,,0.04,meteohub,2013-01-26 18:40:00,
2013-01-26 20:45:00,46.2,45.7,-100.00,North,0,3.0,7.0,98,0.00,,,0.04,meteohub,2013-01-26 18:45:00,
2013-01-26 20:50:00,46.2,45.7,-100.00,NNE,22,3.0,7.0,98,0.00,,,0.04,meteohub,2013-01-26 18:50:00,
2013-01-26 20:55:00,46.2,45.7,-100.00,SE,135,0.0,5.0,98,0.00,,,0.04,meteohub,2013-01-26 18:55:00,
2013-01-26 21:00:00,46.2,45.7,-100.00,NE,45,2.0,5.0,98,0.00,,,0.04,meteohub,2013-01-26 19:00:00,
2013-01-26 21:05:00,46.2,45.7,-100.00,North,0,2.0,5.0,98,0.00,,,0.04,meteohub,2013-01-26 19:05:00,
2013-01-26 21:10:00,46.2,45.7,-100.00,NE,45,0.0,5.0,98,0.00,,,0.04,meteohub,2013-01-26 19:10:00,
2013-01-26 21:15:00,46.2,45.7,-100.00,NE,45,4.0,7.0,98,0.00,,,0.04,meteohub,2013-01-26 19:15:00,
2013-01-26 21:21:00,46.2,45.7,-100.00,NE,45,1.0,7.0,98,0.00,,,0.04,meteohub,2013-01-26 19:21:00,
2013-01-26 21:26:00,46.2,45.7,-100.00,NE,45,0.0,4.0,98,0.00,,,0.04,meteohub,2013-01-26 19:26:00,
2013-01-26 21:31:00,46.2,45.7,-100.00,NE,45,3.0,4.0,98,0.00,,,0.04,meteohub,2013-01-26 19:31:00,
2013-01-26 21:36:00,46.2,45.7,-100.00,NE,45,0.0,6.0,98,0.00,,,0.04,meteohub,2013-01-26 19:36:00,
2013-01-26 21:41:00,46.2,45.7,-100.00,NE,45,1.0,6.0,98,0.00,,,0.04,meteohub,2013-01-26 19:41:00,
2013-01-26 21:46:00,46.0,45.5,-100.00,North,0,0.0,6.0,98,0.00,,,0.04,meteohub,2013-01-26 19:46:00,
2013-01-26 21:51:00,46.0,45.5,-100.00,NE,45,0.0,6.0,98,0.00,,,0.04,meteohub,2013-01-26 19:51:00,
2013-01-26 21:56:00,46.0,45.5,-100.00,NE,45,4.0,6.0,98,0.00,,,0.04,meteohub,2013-01-26 19:56:00,
2013-01-26 22:01:00,46.0,45.5,-100.00,North,0,0.0,6.0,98,0.00,,,0.04,meteohub,2013-01-26 20:01:00,
2013-01-26 22:06:00,46.0,45.5,-100.00,North,0,3.0,6.0,98,0.00,,,0.04,meteohub,2013-01-26 20:06:00,
2013-01-26 22:11:00,46.0,45.5,-100.00,NNE,22,1.0,6.0,98,0.00,,,0.04,meteohub,2013-01-26 20:11:00,
2013-01-26 22:16:00,46.2,45.7,-100.00,East,90,2.0,5.0,98,0.00,,,0.04,meteohub,2013-01-26 20:16:00,
2013-01-26 22:21:00,46.2,45.7,-100.00,NE,45,1.0,5.0,98,0.00,,,0.04,meteohub,2013-01-26 20:21:00,
2013-01-26 22:26:00,46.2,45.7,-100.00,NE,45,2.0,5.0,98,0.00,,,0.04,meteohub,2013-01-26 20:26:00,
2013-01-26 22:32:00,46.2,45.7,-100.00,North,0,1.0,5.0,98,0.00,,,0.04,meteohub,2013-01-26 20:32:00,
2013-01-26 22:37:00,46.0,45.5,-100.00,NE,45,2.0,4.0,98,0.00,,,0.04,meteohub,2013-01-26 20:37:00,
2013-01-26 22:42:00,46.0,45.5,-100.00,NE,45,0.0,4.0,98,0.00,,,0.04,meteohub,2013-01-26 20:42:00,
2013-01-26 22:47:00,46.2,45.7,-100.00,NE,45,2.0,5.0,98,0.00,,,0.04,meteohub,2013-01-26 20:47:00,
2013-01-26 22:52:00,46.0,45.5,-100.00,NNW,338,3.0,5.0,98,0.00,,,0.04,meteohub,2013-01-26 20:52:00,
2013-01-26 22:57:00,46.0,45.5,-100.00,NE,45,2.0,5.0,98,0.00,,,0.04,meteohub,2013-01-26 20:57:00,
2013-01-26 23:02:00,46.0,45.5,-100.00,North,0,2.0,5.0,98,0.00,,,0.04,meteohub,2013-01-26 21:02:00,
2013-01-26 23:07:00,46.0,45.5,-100.00,NE,45,1.0,6.0,98,0.00,,,0.04,meteohub,2013-01-26 21:07:00,
2013-01-26 23:12:00,46.0,45.5,-100.00,NE,45,1.0,6.0,98,0.00,,,0.04,meteohub,2013-01-26 21:12:00,
2013-01-26 23:17:00,46.0,45.5,-100.00,North,0,1.0,6.0,98,0.00,,,0.04,meteohub,2013-01-26 21:17:00,
2013-01-26 23:22:00,46.0,45.5,-100.00,NE,45,1.0,6.0,98,0.00,,,0.04,meteohub,2013-01-26 21:22:00,
2013-01-26 23:27:00,45.9,45.3,-100.00,NE,45,0.0,6.0,98,0.00,,,0.04,meteohub,2013-01-26 21:27:00,
2013-01-26 23:33:00,45.9,45.3,-100.00,NE,45,0.0,7.0,98,0.00,,,0.04,meteohub,2013-01-26 21:33:00,
2013-01-26 23:38:00,46.0,45.5,-100.00,North,0,1.0,7.0,98,0.00,,,0.04,meteohub,2013-01-26 21:38:00,
2013-01-26 23:43:00,46.0,45.5,-100.00,NE,45,3.0,7.0,98,0.00,,,0.04,meteohub,2013-01-26 21:43:00,
2013-01-26 23:48:00,45.9,45.3,-100.00,NE,45,0.0,6.0,98,0.00,,,0.04,meteohub,2013-01-26 21:48:00,
2013-01-26 23:53:00,45.9,45.3,-100.00,NE,45,0.0,6.0,98,0.00,,,0.04,meteohub,2013-01-26 21:53:00,
2013-01-26 23:58:00,45.9,45.3,-100.00,NE,45,1.0,6.0,98,0.00,,,0.04,meteohub,2013-01-26 21:58:00,